Flag for U.S.A. Weather past 2 weeks in Hayward, California, U.S.A.

Now
58 °F

Broken clouds.


Feels Like: 56 °F
Forecast: 48 / 59 °F
Wind: 10 mph from South

Location: Hayward Air Terminal

Current Time: Mar 2, 2015 at 11:11:03 AM

Latest Report: Mar 2, 2015 at 10:54 AM


Visibility: 10 mi

Pressure: 29.85 "Hg

Humidity: 65%

Dew point: 46 °F

Location of HaywardLocation

Historic Weather in Hayward — Graph

°F

Hayward temperature yesterday

Maximum temperature yesterday: 65 °F (at 3:54 PM)
Minimum temperature yesterday: 44 °F (at 6:54 AM)
Average temperature yesterday: 54 °F

Past Weeks' High & Low Weather Summary

 TemperatureHumidityPressure
High71 °F (Feb 16, 1:54 PM)90% (Feb 17, 5:54 AM)30.39 "Hg (Feb 17, 5:54 AM)
Low40 °F (Feb 24, 2:54 AM)18% (Feb 23, 4:54 PM)29.75 "Hg (Feb 28, 3:54 AM)
Average57 °F66%30.04 "Hg
* Reported Feb 15 9:54 AM — Mar 2 9:54 AM, Hayward, Weather by CustomWeather, © 2015

Note: Actual official high and low records may vary slightly from our data, if they occured in-between our weather recording intervals... More about our weather records

Advertising

Hayward weather history for previous 24 hours

 ConditionsComfort  
Time TempWeatherWind HumidityBarometerVisibility
9:54 AM
Mon, Mar 2
56 °FPartly sunny.8 mph67%29.85 "Hg10 mi
8:54 AM54 °FScattered clouds.10 mph69%29.86 "Hg10 mi
7:54 AM50 °FMostly cloudy.8 mph77%29.86 "Hg10 mi
6:54 AM49 °FPartly sunny.7 mph80%29.86 "Hg10 mi
5:54 AM48 °FPassing clouds.6 mph80%29.87 "Hg10 mi
4:54 AM48 °FClear.3 mph80%29.87 "Hg10 mi
3:54 AM46 °FClear.3 mph83%29.88 "Hg10 mi
2:54 AM48 °FClear.No wind80%29.89 "Hg10 mi
1:54 AM47 °FClear.3 mph83%29.92 "Hg10 mi
12:54 AM47 °FClear.No wind83%29.94 "Hg10 mi
11:54 PM
Sun, Mar 1
50 °FClear.No wind77%29.95 "Hg10 mi
10:54 PM50 °FClear.5 mph80%29.96 "Hg10 mi
9:54 PM53 °FClear.3 mph74%29.96 "Hg10 mi
8:54 PM54 °FClear.3 mph74%29.97 "Hg10 mi
7:54 PM56 °FClear.3 mph65%29.96 "Hg10 mi
6:54 PM57 °FClear.6 mph64%29.96 "Hg10 mi
5:54 PM59 °FSunny.12 mph69%29.94 "Hg10 mi
4:54 PM62 °FSunny.13 mph56%29.93 "Hg10 mi
3:54 PM65 °FSunny.8 mph39%29.94 "Hg10 mi
2:54 PM63 °FSunny.12 mph43%29.95 "Hg10 mi
1:54 PM62 °FSunny.10 mph41%29.96 "Hg10 mi
12:54 PM64 °FSunny.10 mph35%29.98 "Hg10 mi
11:54 AM63 °FSunny.9 mph37%30.00 "Hg10 mi
Weather by CustomWeather, © 2015

See weather overviewHow to use our weather pages